FMN 1 (43192 NORAD) Tracking and Keplerian Element Data

This shows tracking and keplerian element data for the satellite.

Feedback or suggestion? Click here.




ElementValue
Catalog43192
NameFMN 1
Epoch Orbit8944
Epoch Day255.87260553
Epoch Year2019
RAAN22.5903
Inclination97.4093
Eccentricity0.0016096
Argument of Perigee356.5656
Mean Anonmoly122.6369
Mean Motion15.24494353
Decay Rate1.651E-05
L11 43192U 18015A 19255.87260553 .00001651 00000-0 69885-4 0 9995
L22 43192 97.4093 22.5903 0016096 356.5656 122.6369 15.24494353 89446

Live tracking and technical data element details for FMN 1 (NORAD 43192). FMN 1 can be tracked NOW for your location showing map with azimuth and elevation plus other details from your city location.

Track the satellite on the map from your city or location and see movement details for azimuth, elevation, latitude, longitude, range, height, and movement on the map or in text.







IsCatalogInMostPopularTable: catalog: 43192, numindb: 378
Update: records affected: 1



GetName: 43192 FMN 1

Hit Count: updated at: Thu, 19 Sep 2019 17:05:06 GMT